Temperature
20 18 17 18 18 19 19 18 18 18 18 17 17 17 16 16 16 15 16 16 17 17 17 17 16 16 16 16 16 16 16 16 16 16 15 15 15 15 14 14 14 14 14 14
17 18 19 19 19 19 18 18 18 18 18 17 16 16 16 16 15 16 16 16 17 17 17 16 16 16 16 16 16 16 16 15 15 15 15 15 15 14 14 14 14 14 14 14
18 19 19 19 19 19 18 18 18 18 18 17 17 16 16 15 16 16 16 16 17 17 17 17 16 16 16 16 16 15 15 15 15 15 15 14 14 14 14 14 14 14 13 13
18 19 19 19 19 19 18 19 18 18 17 16 17 15 16 15 15 15 15 15 16 16 16 16 16 16 16 16 15 15 15 15 15 14 14 14 14 14 14 14 13 13 13 13
18 19 19 19 19 19 18 19 18 18 17 16 16 15 15 15 15 15 14 15 16 16 16 16 16 16 16 15 15 15 15 14 14 14 14 14 13 13 13 13 13 13 13 13
18 19 19 19 19 19 18 17 16 14 14 15 16 15 15 14 15 15 15 15 15 16 16 16 16 15 15 15 15 15 14 14 14 14 13 13 13 13 13 13 13 13 12 12
18 18 18 19 19 18 17 16 15 16 14 15 15 15 15 16 15 15 15 15 15 16 16 16 15 15 15 15 14 14 14 14 13 13 13 13 13 12 12 12 12 12 12 12
17 17 18 18 18 18 17 16 15 16 15 14 15 15 15 15 15 15 15 15 16 15 16 16 15 15 15 15 14 14 14 14 13 13 13 12 12 12 12 12 12 12 12 12
16 16 18 18 18 17 17 15 15 14 15 14 14 14 15 15 14 14 14 14 15 15 15 15 15 15 15 14 14 14 13 13 13 12 12 12 12 12 12 11 11 11 11 11
16 16 17 17 18 17 16 14 13 14 14 14 15 15 14 15 14 14 13 14 14 15 15 15 15 15 15 14 14 14 13 13 12 12 12 12 11 11 11 11 11 11 11 11
16 16 16 16 17 17 16 15 13 12 13 13 14 14 15 15 14 13 13 14 15 15 15 15 15 15 14 14 14 13 13 12 12 12 11 11 11 11 11 11 11 11 11 11
14 13 14 15 16 16 16 15 13 14 14 12 13 14 15 14 14 14 14 15 15 15 15 15 15 14 14 14 13 13 13 12 12 12 11 11 11 11 10 10 10 10 10 10
14 13 14 15 15 15 16 15 14 12 12 11 12 14 14 14 14 14 14 15 15 15 15 14 14 14 14 13 13 13 12 12 12 11 11 11 11 10 10 10 10 10 10 10
14 13 14 15 15 15 15 15 14 13 12 12 12 14 14 14 13 13 14 15 15 15 15 14 14 14 14 13 13 12 12 12 11 11 11 11 10 10 10 10 10 10 10 10
13 13 14 14 14 14 14 14 14 13 13 13 13 13 14 14 13 14 14 14 14 14 14 14 14 14 13 13 13 12 12 12 11 11 11 10 10 10 10 9 9 9 9 9
12 13 14 14 14 14 14 14 13 13 13 13 13 13 13 13 13 13 13 13 13 14 14 14 14 13 13 13 12 12 11 11 11 11 10 10 10 9 9 9 9 9 9 9
11 12 12 12 13 14 13 14 13 13 13 13 13 13 13 12 12 13 13 13 14 14 14 14 14 13 13 13 12 12 11 11 11 10 10 10 9 9 9 9 9 9 8 9
11 11 10 11 13 13 14 14 14 14 13 13 13 13 13 13 13 14 14 14 14 14 14 14 13 13 13 12 12 12 11 11 10 10 10 10 9 9 9 8 8 8 8 8
10 10 10 10 11 12 13 14 13 13 13 13 12 12 13 13 13 13 14 14 14 14 14 13 13 13 12 12 12 11 11 11 10 10 10 9 9 9 8 8 8 8 8 8
9 9 9 9 12 12 13 14 14 14 13 13 12 12 12 12 11 12 14 14 13 13 13 13 12 12 12 12 11 11 11 10 10 10 10 9 9 8 8 8 7 7 7 7
10 9 9 9 11 11 12 13 14 13 13 13 13 13 12 12 12 13 13 13 13 13 13 12 12 12 12 11 11 11 10 10 10 9 9 9 8 8 8 7 7 7 7 7
10 9 9 9 10 11 12 12 12 12 13 13 13 13 13 13 13 13 13 13 13 12 12 12 12 11 11 11 10 10 10 10 9 9 9 8 8 8 7 7 7 7 6 6
9 10 9 9 11 12 12 13 13 13 13 13 13 13 13 12 12 12 12 12 12 12 12 11 11 11 11 10 10 10 10 9 9 8 8 8 8 7 7 7 7 6 6 6
9 9 8 8 9 11 12 13 13 13 13 13 13 13 13 12 12 12 12 12 12 11 11 11 11 10 10 10 9 9 9 9 8 8 8 7 7 7 7 6 6 6 6 6
9 9 8 9 9 11 12 13 13 13 13 13 12 12 12 12 12 11 11 11 11 11 11 10 10 10 10 9 9 9 8 8 8 7 7 7 7 6 6 6 6 6 5 5
8 9 9 9 11 10 12 12 12 12 12 12 12 12 12 11 11 11 11 11 11 10 10 10 9 9 9 9 8 8 8 7 7 7 7 6 6 6 6 5 5 5 5 5
Wind_Speed
4 4 2 6 6 4 4 3 2 3 2 4 5 5 4 4 5 6 5 5 5 5 3 1 1 2 3 3 3 3 3 3 3 2 2 2 2 2 2 3 4 4 3 3
5 2 5 3 3 4 4 3 2 3 0 4 3 4 4 4 5 7 8 8 7 4 1 0 1 2 3 3 3 3 3 3 2 1 1 2 2 1 1 2 4 4 4 4
4 4 1 4 3 3 3 5 5 3 2 2 1 4 4 2 2 3 4 5 5 5 4 2 2 2 2 2 2 2 2 3 3 3 3 3 3 3 3 2 2 3 4 4
1 2 1 2 2 4 3 5 5 3 2 1 1 3 6 3 2 4 5 5 5 4 4 3 3 2 2 1 2 3 3 3 3 3 4 4 3 1 0 0 1 2 4 4
2 0 2 2 4 5 4 1 3 2 3 1 0 2 7 2 4 6 6 6 5 5 5 5 4 4 2 2 3 3 3 4 4 4 3 4 3 1 1 2 3 3 3 4
3 1 2 3 1 2 3 6 6 5 4 1 3 4 6 4 6 5 5 5 5 4 5 4 3 4 3 3 3 3 4 3 3 3 3 4 3 2 3 3 2 2 2 2
4 4 3 1 2 3 4 6 3 3 3 4 2 3 7 5 5 5 6 5 5 5 5 5 5 4 4 3 3 3 4 3 2 3 3 3 3 2 2 1 1 1 2 1
0 4 3 1 3 3 2 6 6 4 4 4 2 4 6 4 4 2 3 4 4 5 5 5 5 5 4 4 3 3 3 2 2 3 2 2 2 2 1 1 1 1 0 1
4 4 4 2 0 5 4 3 5 6 2 1 5 5 6 2 3 3 3 3 4 5 5 5 5 4 4 4 3 4 4 2 2 1 2 2 2 2 1 1 1 0 1 1
6 3 4 3 3 3 4 6 5 5 3 3 4 4 4 4 3 1 1 3 4 4 4 4 4 4 3 3 3 3 3 2 2 1 1 1 0 0 1 1 1 1 1 1
4 4 3 3 1 2 2 3 4 4 5 5 3 6 4 6 5 5 5 5 5 5 6 5 4 4 3 3 3 3 2 2 2 1 1 1 1 1 1 1 1 1 1 1
3 4 2 4 3 2 3 5 6 4 4 4 4 6 4 4 4 4 4 3 4 4 4 4 4 4 3 3 3 3 3 2 2 2 1 0 0 1 1 1 1 1 1 1
4 4 2 5 5 2 0 2 3 5 5 5 4 6 3 2 0 2 3 3 3 4 4 4 3 4 4 4 4 3 3 3 2 2 1 1 0 0 1 1 1 1 1 1
5 4 5 6 6 3 2 2 3 5 4 5 7 7 6 4 2 2 3 4 3 4 4 4 4 4 4 4 4 4 3 3 3 2 2 1 1 1 2 1 1 1 1 1
4 2 4 4 4 3 4 5 5 6 7 8 7 7 9 6 5 5 4 3 3 4 4 5 5 5 4 4 4 4 3 3 3 3 3 2 2 1 1 1 1 1 1 2
3 2 1 2 2 2 4 6 6 6 5 6 5 7 6 3 2 2 3 4 5 5 6 6 5 5 5 5 5 4 4 4 3 4 4 3 2 1 1 1 1 1 1 2
2 3 2 3 4 3 5 6 6 4 4 6 7 7 3 2 3 4 5 5 6 6 6 6 6 6 6 6 6 6 6 4 4 4 4 3 3 2 2 1 0 1 1 1
5 4 3 1 1 5 6 3 4 4 4 5 4 4 4 5 4 4 4 5 5 5 5 5 5 5 4 4 5 5 4 4 4 4 4 3 3 2 2 1 1 1 1 1
5 6 3 3 2 6 6 3 4 4 4 4 5 4 2 1 2 3 2 3 5 5 4 4 4 4 3 3 4 4 4 4 3 4 4 4 4 3 3 2 2 2 1 1
4 4 4 3 3 5 6 3 2 3 4 3 4 4 2 3 0 5 4 2 2 2 2 2 2 2 2 3 3 4 4 4 5 5 4 4 4 4 4 4 3 2 1 2
2 2 3 4 5 7 6 3 2 3 5 2 4 4 4 4 5 4 2 2 2 2 2 1 2 2 3 3 4 4 4 5 5 4 3 3 4 4 3 2 2 1 1 1
6 5 5 4 4 7 3 3 4 5 2 2 3 3 4 3 3 2 2 2 2 1 1 1 2 1 1 3 4 4 4 4 2 3 2 2 3 3 2 2 1 1 1 1
6 7 6 8 7 4 3 4 3 2 2 2 2 3 3 2 3 3 2 2 2 2 2 1 2 1 1 1 4 4 4 2 3 3 2 2 1 1 2 3 3 2 2 2
4 3 4 4 6 5 4 3 3 2 2 3 3 3 3 4 4 3 2 2 1 1 2 1 2 2 1 1 2 3 2 3 3 3 2 2 2 1 2 2 2 3 3 2
6 4 3 5 6 5 5 4 3 2 2 2 2 3 4 4 4 4 3 3 2 2 1 2 2 3 2 1 1 1 2 3 3 2 2 2 2 2 2 2 2 3 3 4
6 7 7 8 7 5 6 5 3 3 4 3 2 3 3 3 4 3 3 3 2 2 1 1 2 2 2 2 2 2 2 4 4 2 2 2 2 2 2 2 1 2 2 3
Wind_Direction
46 76 199 217 198 183 164 171 229 261 222 155 198 234 248 194 181 192 200 206 212 230 261 356 48 70 74 68 77 75 72 64 77 75 85 83 64 35 35 43 47 56 71 90
46 278 243 195 164 149 156 170 231 292 244 174 209 258 263 199 200 203 204 209 215 221 227 79 69 70 81 85 78 75 76 71 70 73 92 110 100 72 55 35 44 49 64 77
176 245 194 138 139 144 189 188 206 217 31 65 87 314 287 267 201 202 210 214 214 207 201 190 145 108 94 92 95 96 79 75 63 64 73 70 62 48 34 22 25 27 51 68
235 278 141 138 185 157 236 221 192 171 125 269 151 275 285 266 246 227 226 222 219 213 196 182 164 144 136 120 91 84 84 76 65 74 88 95 98 103 133 40 39 32 47 60
272 265 131 185 223 177 217 138 129 134 146 82 5 194 285 299 255 250 234 224 220 200 183 178 175 166 139 109 95 84 82 72 66 71 88 95 82 76 46 49 55 41 33 43
267 275 187 210 193 151 127 73 60 51 74 282 239 186 275 245 233 246 229 218 206 184 169 163 146 124 104 91 89 87 87 69 64 74 76 87 90 80 72 49 46 36 28 27
339 330 327 134 77 33 84 90 37 358 4 254 259 199 250 260 251 228 219 211 194 172 162 158 146 134 132 127 122 112 110 86 73 79 74 78 86 94 93 77 63 52 38 12
359 304 310 352 167 179 156 139 159 201 228 278 301 236 258 285 295 241 189 178 162 163 169 170 167 159 156 147 134 127 125 105 95 93 82 75 76 76 68 65 73 68 272 281
180 259 303 333 152 137 129 157 162 137 155 259 282 289 305 355 16 53 101 137 172 182 178 173 165 161 159 153 150 149 143 124 116 113 96 70 62 60 53 38 52 14 326 336
166 230 298 321 59 42 135 144 106 124 160 251 287 282 262 276 277 269 200 198 204 192 182 175 173 172 163 160 149 138 135 143 132 122 121 94 73 59 49 66 32 359 335 351
146 170 308 6 151 189 111 111 113 122 149 165 247 271 233 224 225 222 225 217 206 199 191 186 182 171 156 137 138 142 141 130 122 125 114 76 339 330 47 40 316 310 333 354
128 129 244 269 271 229 186 172 149 157 206 177 185 264 280 245 227 209 218 217 203 195 187 180 170 160 156 157 160 161 170 171 179 166 141 147 329 13 36 332 315 340 335 320
130 115 51 343 341 357 72 155 150 133 128 160 179 258 304 349 234 206 210 220 209 188 176 166 165 175 184 183 183 185 186 188 181 158 145 115 24 329 300 306 314 327 316 316
114 123 174 206 226 220 254 231 172 146 168 200 216 243 281 284 270 258 235 223 210 197 187 180 190 198 200 196 193 195 201 192 177 163 161 188 253 255 259 273 302 315 310 305
97 166 215 231 242 219 229 237 210 201 199 201 224 230 255 248 238 237 231 220 207 208 204 201 206 207 206 205 203 201 204 198 182 171 184 217 244 258 269 287 296 331 337 319
79 160 195 278 268 236 252 251 232 228 215 215 235 259 260 255 225 226 226 211 213 220 218 214 209 208 211 213 209 204 209 205 184 182 201 210 206 228 254 270 303 9 353 339
132 142 141 265 300 334 274 240 211 212 211 191 217 238 246 246 232 223 217 210 216 226 225 218 213 211 214 216 207 205 208 195 188 195 200 202 197 206 233 246 334 318 309 335
151 141 152 214 17 245 249 246 195 204 238 217 214 233 229 229 236 236 216 215 224 221 220 222 215 215 220 218 207 198 186 184 192 202 203 199 193 205 220 202 226 266 275 265
158 149 144 149 220 275 289 258 182 186 258 227 210 232 239 226 18 328 252 218 221 220 222 223 217 214 206 208 197 177 181 187 193 209 217 209 198 200 205 214 229 243 247 262
78 114 136 150 188 242 250 253 206 126 273 248 195 210 203 115 74 271 261 235 229 234 224 219 202 180 186 214 178 168 184 194 214 220 222 211 197 197 208 218 219 231 232 245
93 99 160 186 220 258 257 271 130 167 247 239 195 200 183 192 222 244 248 256 224 222 216 188 167 184 208 200 171 175 189 213 225 217 210 206 195 197 201 210 217 212 223 228
177 172 187 167 200 248 256 131 175 222 250 214 215 212 206 232 269 268 250 237 216 208 188 164 155 200 221 184 169 181 211 226 203 179 179 202 197 194 186 172 187 207 208 214
198 194 189 192 214 248 227 205 236 213 225 243 236 238 203 230 260 268 253 229 222 212 203 181 163 178 268 205 182 197 224 198 167 156 170 198 205 191 175 174 182 195 207 214
246 178 170 236 259 257 261 264 265 213 218 259 252 242 209 224 241 249 239 237 231 239 224 195 162 177 241 242 211 215 210 177 161 168 190 203 195 192 182 180 183 192 205 212
218 178 195 245 265 289 278 254 250 277 286 289 294 259 224 208 231 231 230 234 231 237 238 202 189 196 223 218 215 206 176 159 164 179 194 200 200 199 197 201 205 205 214 210
206 194 198 233 228 215 252 259 258 263 272 266 270 290 269 213 217 232 239 239 227 217 199 201 207 210 230 206 204 203 177 167 168 189 206 207 202 209 203 199 235 248 238 256
Height
1504 1510 1516 1514 1513 1514 1517 1522 1524 1522 1517 1521 1523 1523 1522 1521 1522 1522 1523 1524 1524 1525 1526 1527 1527 1527 1527 1526 1526 1526 1526 1526 1527 1527 1527 1527 1528 1528 1529 1529 1529 1530 1530 1530
1511 1514 1509 1508 1510 1513 1517 1522 1524 1521 1517 1520 1524 1523 1520 1519 1520 1520 1521 1521 1522 1523 1524 1525 1526 1526 1526 1526 1526 1526 1526 1526 1526 1526 1527 1527 1527 1528 1528 1528 1529 1529 1529 1530
1512 1510 1506 1508 1511 1515 1517 1520 1520 1522 1520 1520 1524 1526 1521 1518 1518 1519 1519 1520 1521 1522 1522 1523 1524 1525 1525 1525 1526 1526 1526 1526 1526 1526 1526 1526 1527 1527 1527 1528 1528 1528 1529 1529
1509 1507 1507 1509 1511 1513 1519 1512 1515 1518 1525 1531 1527 1538 1523 1519 1518 1517 1517 1517 1518 1519 1521 1522 1523 1524 1525 1525 1526 1527 1527 1526 1526 1526 1526 1526 1526 1526 1526 1527 1527 1527 1528 1528
1510 1507 1507 1510 1509 1509 1512 1510 1514 1518 1524 1531 1530 1537 1530 1520 1519 1516 1514 1515 1515 1517 1519 1520 1521 1523 1524 1525 1526 1527 1527 1527 1526 1526 1526 1525 1525 1526 1526 1526 1526 1526 1527 1527
1507 1505 1505 1506 1505 1507 1509 1514 1519 1526 1531 1539 1532 1536 1533 1522 1516 1513 1512 1512 1513 1515 1517 1519 1521 1522 1524 1525 1526 1526 1526 1526 1526 1526 1525 1525 1525 1525 1525 1525 1525 1525 1526 1526
1512 1508 1505 1504 1507 1509 1512 1524 1539 1540 1546 1542 1531 1533 1529 1513 1510 1509 1509 1510 1511 1513 1516 1518 1519 1521 1522 1524 1524 1525 1526 1526 1525 1525 1525 1525 1525 1524 1524 1524 1524 1524 1524 1525
1520 1521 1508 1505 1508 1512 1514 1521 1538 1545 1547 1542 1532 1533 1521 1511 1508 1507 1508 1509 1510 1512 1514 1516 1518 1520 1521 1523 1524 1524 1525 1525 1525 1525 1525 1524 1524 1524 1524 1524 1524 1524 1523 1524
1521 1520 1507 1504 1505 1508 1515 1521 1521 1535 1538 1543 1537 1528 1517 1510 1508 1508 1508 1509 1510 1512 1513 1515 1517 1519 1520 1522 1523 1524 1524 1524 1525 1525 1524 1524 1523 1523 1523 1523 1523 1522 1522 1522
1512 1518 1510 1506 1505 1507 1511 1517 1528 1535 1543 1546 1537 1531 1526 1514 1511 1509 1509 1509 1510 1511 1513 1514 1516 1517 1519 1521 1522 1523 1524 1524 1524 1524 1524 1523 1523 1522 1522 1521 1521 1521 1521 1521
1510 1518 1515 1511 1511 1513 1516 1519 1525 1534 1535 1544 1544 1534 1513 1511 1509 1508 1508 1508 1509 1510 1511 1513 1515 1516 1518 1520 1521 1522 1522 1523 1523 1523 1522 1522 1521 1521 1520 1520 1519 1519 1519 1519
1511 1519 1522 1516 1509 1508 1510 1514 1522 1531 1534 1538 1541 1533 1507 1506 1505 1506 1506 1507 1508 1509 1511 1512 1514 1515 1517 1518 1519 1520 1521 1521 1521 1521 1521 1521 1520 1519 1519 1518 1518 1518 1517 1517
1510 1518 1526 1523 1520 1513 1512 1512 1516 1523 1532 1539 1540 1528 1506 1505 1505 1505 1505 1506 1507 1508 1509 1510 1512 1514 1515 1516 1517 1518 1519 1519 1520 1520 1520 1519 1518 1518 1517 1517 1516 1516 1515 1515
1507 1517 1522 1524 1520 1515 1514 1513 1515 1521 1530 1533 1529 1519 1509 1506 1505 1505 1504 1505 1506 1507 1508 1508 1510 1511 1512 1514 1515 1515 1516 1517 1517 1518 1517 1517 1516 1516 1515 1515 1514 1514 1513 1513
1507 1515 1514 1513 1511 1511 1512 1511 1512 1515 1517 1521 1517 1514 1506 1503 1503 1503 1503 1503 1504 1505 1506 1506 1507 1508 1510 1511 1512 1513 1513 1514 1515 1515 1515 1514 1514 1513 1513 1513 1512 1512 1511 1511
1509 1514 1513 1513 1510 1510 1511 1509 1509 1509 1510 1511 1510 1509 1501 1500 1501 1501 1501 1501 1502 1502 1503 1504 1505 1506 1507 1508 1509 1509 1510 1511 1511 1511 1511 1512 1511 1511 1511 1510 1510 1509 1509 1508
1512 1514 1518 1520 1514 1510 1513 1506 1505 1505 1503 1504 1507 1503 1499 1499 1498 1498 1498 1498 1499 1500 1501 1502 1502 1503 1504 1504 1505 1506 1507 1507 1508 1508 1508 1508 1508 1508 1508 1508 1507 1506 1506 1506
1511 1515 1520 1522 1518 1520 1507 1498 1498 1500 1499 1498 1498 1497 1497 1496 1496 1496 1496 1496 1496 1497 1498 1499 1499 1500 1501 1501 1502 1503 1503 1504 1504 1504 1504 1504 1504 1504 1504 1504 1504 1504 1503 1503
1505 1512 1520 1524 1522 1515 1504 1497 1496 1499 1499 1495 1496 1495 1495 1495 1495 1495 1495 1495 1495 1495 1496 1496 1497 1497 1498 1498 1498 1499 1499 1500 1500 1500 1501 1501 1501 1501 1501 1501 1501 1500 1500 1500
1506 1509 1518 1522 1519 1516 1503 1494 1492 1496 1499 1493 1493 1493 1493 1494 1498 1495 1493 1493 1493 1494 1494 1494 1494 1494 1494 1495 1495 1495 1495 1496 1496 1497 1497 1498 1497 1497 1497 1497 1497 1497 1497 1496
1510 1513 1517 1520 1518 1509 1496 1492 1493 1503 1499 1491 1491 1491 1492 1492 1493 1492 1491 1491 1491 1491 1491 1491 1491 1491 1491 1491 1492 1492 1492 1492 1493 1493 1494 1494 1494 1494 1494 1494 1494 1494 1493 1493
1507 1512 1514 1517 1517 1509 1491 1492 1495 1494 1490 1489 1489 1489 1489 1489 1489 1488 1488 1488 1488 1488 1489 1489 1488 1488 1488 1488 1488 1488 1488 1489 1489 1489 1490 1490 1490 1490 1490 1490 1490 1490 1490 1490
1501 1501 1502 1504 1501 1492 1489 1489 1489 1489 1488 1488 1488 1487 1488 1487 1487 1486 1486 1486 1486 1486 1486 1486 1486 1486 1485 1485 1485 1485 1485 1485 1485 1486 1486 1486 1487 1486 1486 1486 1486 1486 1486 1486
1496 1494 1497 1497 1491 1488 1487 1487 1487 1487 1487 1486 1486 1486 1485 1485 1484 1484 1484 1483 1483 1483 1483 1483 1483 1483 1482 1482 1482 1482 1482 1482 1482 1482 1482 1482 1482 1483 1483 1483 1483 1483 1482 1482
1491 1492 1493 1492 1488 1486 1484 1484 1484 1484 1484 1484 1484 1483 1483 1482 1482 1482 1481 1481 1481 1481 1481 1481 1480 1480 1480 1479 1479 1479 1479 1479 1478 1478 1479 1479 1479 1479 1479 1479 1479 1479 1479 1479
1485 1486 1489 1486 1482 1483 1481 1481 1482 1482 1481 1481 1480 1479 1479 1480 1479 1479 1479 1479 1478 1478 1478 1478 1477 1477 1477 1476 1476 1475 1475 1475 1475 1475 1475 1475 1475 1475 1475 1475 1475 1476 1476 1476